Wetterdaten: Woche 19.01.15 - 25.01.15 (KW4)
Datum Zeit Temp. Aussen +5cm Feuchte Auss Luftdruck Regen Sonnenschein Regendauer Solar Windben
19.01.2015 00:00 0,0 C -1,1 C 90 % 1012,9 hPa 0,0 l/m 0,00 h 0,00 h 0 W/m 11,8 km/h (2 Bft)
19.01.2015 01:00 -0,3 C -1,3 C 91 % 1012,8 hPa 0,0 l/m 0,00 h 0,00 h 0 W/m 10,4 km/h (2 Bft)
19.01.2015 02:00 -0,7 C -2,2 C 91 % 1012,7 hPa 0,0 l/m 0,00 h 0,00 h 0 W/m 9,8 km/h (2 Bft)
19.01.2015 03:00 -1,0 C -2,2 C 92 % 1012,4 hPa 0,0 l/m 0,00 h 0,00 h 0 W/m 9,7 km/h (2 Bft)
19.01.2015 04:00 -1,1 C -2,2 C 93 % 1012,0 hPa 0,0 l/m 0,00 h 0,00 h 0 W/m 9,5 km/h (2 Bft)
19.01.2015 05:00 -1,2 C -2,3 C 93 % 1011,8 hPa 0,0 l/m 0,00 h 0,00 h 0 W/m 9,9 km/h (2 Bft)
19.01.2015 06:00 -1,6 C -2,8 C 94 % 1011,8 hPa 0,0 l/m 0,00 h 0,00 h 0 W/m 6,3 km/h (2 Bft)
19.01.2015 07:00 -1,7 C -2,8 C 94 % 1011,9 hPa 0,0 l/m 0,00 h 0,00 h 0 W/m 6,8 km/h (2 Bft)
19.01.2015 08:00 -1,5 C -2,3 C 95 % 1012,1 hPa 0,0 l/m 0,03 h 0,00 h 11 W/m 6,8 km/h (2 Bft)
19.01.2015 09:00 -1,2 C -1,7 C 95 % 1012,3 hPa 0,0 l/m 0,63 h 0,00 h 65 W/m 7,7 km/h (2 Bft)
19.01.2015 10:00 -0,5 C -0,4 C 95 % 1012,2 hPa 0,0 l/m 0,20 h 0,00 h 101 W/m 9,8 km/h (2 Bft)
19.01.2015 11:00 0,0 C 0,0 C 94 % 1012,1 hPa 0,0 l/m 0,00 h 0,00 h 110 W/m 5,6 km/h (1 Bft)
19.01.2015 12:00 0,7 C 0,8 C 93 % 1011,6 hPa 0,0 l/m 0,53 h 0,00 h 164 W/m 5,1 km/h (1 Bft)
19.01.2015 13:00 1,5 C 1,2 C 90 % 1011,2 hPa 0,0 l/m 0,17 h 0,00 h 138 W/m 4,3 km/h (1 Bft)
19.01.2015 14:00 1,5 C 0,9 C 88 % 1010,8 hPa 0,0 l/m 0,00 h 0,00 h 99 W/m 4,6 km/h (1 Bft)
19.01.2015 15:00 1,3 C 0,6 C 88 % 1010,8 hPa 0,0 l/m 0,00 h 0,00 h 57 W/m 3,2 km/h (1 Bft)
19.01.2015 16:00 1,1 C 0,2 C 88 % 1010,9 hPa 0,0 l/m 0,03 h 0,00 h 18 W/m 3,9 km/h (1 Bft)
19.01.2015 17:00 0,7 C -0,6 C 89 % 1011,0 hPa 0,0 l/m 0,00 h 0,00 h 0 W/m 2,8 km/h (1 Bft)
19.01.2015 18:00 0,4 C -1,0 C 90 % 1010,9 hPa 0,0 l/m 0,00 h 0,00 h 0 W/m 2,2 km/h (1 Bft)
19.01.2015 19:00 0,1 C -1,2 C 91 % 1011,0 hPa 0,0 l/m 0,00 h 0,00 h 0 W/m 3,0 km/h (1 Bft)
19.01.2015 20:00 -0,3 C -2,0 C 91 % 1011,0 hPa 0,0 l/m 0,00 h 0,00 h 0 W/m 3,1 km/h (1 Bft)
19.01.2015 21:00 -0,7 C -1,7 C 91 % 1011,1 hPa 0,0 l/m 0,00 h 0,00 h 0 W/m 2,5 km/h (1 Bft)
19.01.2015 22:00 -0,6 C -1,4 C 92 % 1011,1 hPa 0,0 l/m 0,00 h 0,00 h 0 W/m 2,3 km/h (1 Bft)
19.01.2015 23:00 -0,4 C -0,9 C 93 % 1011,1 hPa 0,0 l/m 0,00 h 0,00 h 0 W/m 1,6 km/h (1 Bft)
20.01.2015 00:00 -0,1 C -0,6 C 94 % 1011,2 hPa 0,0 l/m 0,00 h 0,00 h 0 W/m 1,9 km/h (1 Bft)
20.01.2015 01:00 0,1 C -0,6 C 94 % 1011,2 hPa 0,0 l/m 0,00 h 0,00 h 0 W/m 1,6 km/h (1 Bft)
20.01.2015 02:00 0,3 C -0,6 C 94 % 1011,2 hPa 0,0 l/m 0,00 h 0,00 h 0 W/m 2,8 km/h (1 Bft)
20.01.2015 03:00 0,4 C -0,6 C 94 % 1011,1 hPa 0,0 l/m 0,00 h 0,00 h 0 W/m 3,2 km/h (1 Bft)
20.01.2015 04:00 0,5 C -0,4 C 95 % 1011,0 hPa 0,0 l/m 0,00 h 0,00 h 0 W/m 3,2 km/h (1 Bft)
20.01.2015 05:00 0,5 C 0,0 C 95 % 1010,9 hPa 0,0 l/m 0,00 h 0,00 h 0 W/m 4,8 km/h (1 Bft)
20.01.2015 06:00 0,6 C 0,0 C 95 % 1011,2 hPa 0,0 l/m 0,00 h 0,00 h 0 W/m 4,9 km/h (1 Bft)
20.01.2015 07:00 0,5 C 0,0 C 95 % 1011,7 hPa 0,0 l/m 0,00 h 0,00 h 0 W/m 4,2 km/h (1 Bft)
20.01.2015 08:00 0,5 C 0,0 C 95 % 1012,0 hPa 0,0 l/m 0,00 h 0,00 h 6 W/m 6,7 km/h (2 Bft)
20.01.2015 09:00 0,5 C 0,0 C 95 % 1012,4 hPa 0,0 l/m 0,00 h 0,00 h 24 W/m 3,9 km/h (1 Bft)
20.01.2015 10:00 0,8 C 0,7 C 95 % 1012,6 hPa 0,0 l/m 0,00 h 0,00 h 59 W/m 3,8 km/h (1 Bft)
20.01.2015 11:00 1,2 C 1,1 C 94 % 1012,9 hPa 0,0 l/m 0,00 h 0,00 h 76 W/m 3,5 km/h (1 Bft)
20.01.2015 12:00 1,7 C 1,5 C 92 % 1012,8 hPa 0,0 l/m 0,00 h 0,00 h 78 W/m 4,8 km/h (1 Bft)
20.01.2015 13:00 1,9 C 2,0 C 88 % 1012,5 hPa 0,0 l/m 0,00 h 0,00 h 125 W/m 5,0 km/h (1 Bft)
20.01.2015 14:00 2,6 C 2,2 C 84 % 1012,3 hPa 0,0 l/m 0,00 h 0,00 h 93 W/m 5,0 km/h (1 Bft)
20.01.2015 15:00 2,5 C 1,7 C 82 % 1012,4 hPa 0,0 l/m 0,03 h 0,00 h 56 W/m 3,3 km/h (1 Bft)
20.01.2015 16:00 2,3 C 1,1 C 82 % 1012,4 hPa 0,0 l/m 0,00 h 0,00 h 13 W/m 3,3 km/h (1 Bft)
20.01.2015 17:00 1,8 C 0,3 C 83 % 1012,5 hPa 0,0 l/m 0,00 h 0,00 h 5 W/m 6,2 km/h (2 Bft)
20.01.2015 18:00 1,4 C 0,4 C 85 % 1012,6 hPa 0,0 l/m 0,00 h 0,00 h 0 W/m 4,3 km/h (1 Bft)
20.01.2015 19:00 1,3 C 0,4 C 86 % 1012,8 hPa 0,0 l/m 0,00 h 0,00 h 0 W/m 3,2 km/h (1 Bft)
20.01.2015 20:00 1,2 C 0,0 C 86 % 1013,0 hPa 0,0 l/m 0,00 h 0,00 h 0 W/m 4,6 km/h (1 Bft)
20.01.2015 21:00 1,2 C 0,0 C 86 % 1013,0 hPa 0,0 l/m 0,00 h 0,00 h 0 W/m 5,0 km/h (1 Bft)
20.01.2015 22:00 1,1 C 0,0 C 85 % 1012,8 hPa 0,0 l/m 0,00 h 0,00 h 0 W/m 6,9 km/h (2 Bft)
20.01.2015 23:00 0,9 C 0,0 C 85 % 1012,8 hPa 0,0 l/m 0,00 h 0,00 h 0 W/m 6,6 km/h (2 Bft)
21.01.2015 00:00 0,9 C 0,0 C 83 % 1012,8 hPa 0,0 l/m 0,00 h 0,00 h 0 W/m 8,4 km/h (2 Bft)
21.01.2015 01:00 0,8 C -0,6 C 82 % 1012,6 hPa 0,0 l/m 0,00 h 0,00 h 0 W/m 6,9 km/h (2 Bft)
21.01.2015 02:00 0,2 C -2,0 C 81 % 1012,3 hPa 0,0 l/m 0,00 h 0,00 h 0 W/m 6,2 km/h (2 Bft)
21.01.2015 03:00 -0,7 C -2,5 C 83 % 1011,8 hPa 0,0 l/m 0,00 h 0,00 h 0 W/m 5,9 km/h (2 Bft)
21.01.2015 04:00 -1,0 C -2,3 C 85 % 1011,8 hPa 0,0 l/m 0,00 h 0,00 h 0 W/m 5,6 km/h (1 Bft)
21.01.2015 05:00 -1,2 C -2,8 C 86 % 1011,6 hPa 0,0 l/m 0,00 h 0,00 h 0 W/m 4,8 km/h (1 Bft)
21.01.2015 06:00 -1,6 C -3,3 C 87 % 1011,8 hPa 0,0 l/m 0,00 h 0,00 h 0 W/m 6,0 km/h (2 Bft)
21.01.2015 07:00 -1,9 C -3,3 C 89 % 1011,9 hPa 0,0 l/m 0,00 h 0,00 h 0 W/m 8,7 km/h (2 Bft)
21.01.2015 08:00 -1,9 C -2,9 C 90 % 1012,1 hPa 0,0 l/m 0,33 h 0,00 h 16 W/m 8,8 km/h (2 Bft)
21.01.2015 09:00 -1,5 C -1,8 C 89 % 1012,2 hPa 0,0 l/m 0,77 h 0,00 h 63 W/m 8,4 km/h (2 Bft)
21.01.2015 10:00 -0,4 C -0,4 C 86 % 1012,4 hPa 0,0 l/m 0,17 h 0,00 h 96 W/m 12,7 km/h (3 Bft)
21.01.2015 11:00 0,6 C 0,8 C 82 % 1012,4 hPa 0,0 l/m 0,27 h 0,00 h 139 W/m 12,6 km/h (3 Bft)
21.01.2015 12:00 2,6 C 1,6 C 76 % 1011,8 hPa 0,0 l/m 1,00 h 0,00 h 293 W/m 15,8 km/h (3 Bft)
21.01.2015 13:00 4,0 C 2,0 C 69 % 1011,4 hPa 0,0 l/m 0,83 h 0,00 h 223 W/m 15,8 km/h (3 Bft)
21.01.2015 14:00 3,5 C 2,2 C 70 % 1011,0 hPa 0,0 l/m 0,33 h 0,00 h 124 W/m 14,2 km/h (3 Bft)
21.01.2015 15:00 3,2 C 2,1 C 72 % 1011,0 hPa 0,0 l/m 0,00 h 0,00 h 50 W/m 12,1 km/h (2 Bft)
21.01.2015 16:00 3,0 C 1,6 C 74 % 1011,3 hPa 0,0 l/m 0,00 h 0,00 h 11 W/m 9,6 km/h (2 Bft)
21.01.2015 17:00 2,6 C 1,1 C 76 % 1011,4 hPa 0,0 l/m 0,00 h 0,00 h 0 W/m 12,3 km/h (3 Bft)
21.01.2015 18:00 2,2 C 0,9 C 78 % 1011,6 hPa 0,0 l/m 0,00 h 0,00 h 0 W/m 12,8 km/h (3 Bft)
21.01.2015 19:00 1,8 C 0,1 C 79 % 1012,1 hPa 0,0 l/m 0,00 h 0,00 h 0 W/m 9,6 km/h (2 Bft)
21.01.2015 20:00 1,0 C -1,1 C 81 % 1012,2 hPa 0,0 l/m 0,00 h 0,00 h 0 W/m 7,3 km/h (2 Bft)
21.01.2015 21:00 0,1 C -1,7 C 83 % 1012,4 hPa 0,0 l/m 0,00 h 0,00 h 0 W/m 9,6 km/h (2 Bft)
21.01.2015 22:00 0,0 C -1,4 C 85 % 1012,7 hPa 0,0 l/m 0,00 h 0,00 h 0 W/m 11,6 km/h (2 Bft)
21.01.2015 23:00 0,3 C -0,5 C 86 % 1012,9 hPa 0,0 l/m 0,00 h 0,00 h 0 W/m 14,2 km/h (3 Bft)
22.01.2015 00:00 0,8 C 0,0 C 85 % 1013,1 hPa 0,0 l/m 0,00 h 0,00 h 0 W/m 13,8 km/h (3 Bft)
22.01.2015 01:00 0,8 C -0,5 C 85 % 1013,2 hPa 0,0 l/m 0,00 h 0,00 h 0 W/m 13,5 km/h (3 Bft)
22.01.2015 02:00 0,6 C -0,7 C 87 % 1013,2 hPa 0,0 l/m 0,00 h 0,00 h 0 W/m 13,5 km/h (3 Bft)
22.01.2015 03:00 0,2 C -1,2 C 87 % 1013,5 hPa 0,0 l/m 0,00 h 0,00 h 0 W/m 10,1 km/h (2 Bft)
22.01.2015 04:00 -0,1 C -1,1 C 89 % 1013,4 hPa 0,0 l/m 0,00 h 0,00 h 0 W/m 12,7 km/h (3 Bft)
22.01.2015 05:00 -0,2 C -1,1 C 88 % 1013,5 hPa 0,0 l/m 0,00 h 0,00 h 0 W/m 13,9 km/h (3 Bft)
22.01.2015 06:00 -0,3 C -1,6 C 88 % 1014,0 hPa 0,0 l/m 0,00 h 0,00 h 0 W/m 9,8 km/h (2 Bft)
22.01.2015 07:00 -0,6 C -1,7 C 89 % 1014,6 hPa 0,0 l/m 0,00 h 0,00 h 0 W/m 16,4 km/h (3 Bft)
22.01.2015 08:00 -0,6 C -1,6 C 89 % 1015,3 hPa 0,0 l/m 0,00 h 0,00 h 12 W/m 17,1 km/h (3 Bft)
22.01.2015 09:00 -0,4 C -1,0 C 89 % 1015,9 hPa 0,0 l/m 0,00 h 0,00 h 40 W/m 16,8 km/h (3 Bft)
22.01.2015 10:00 0,1 C -0,6 C 87 % 1016,6 hPa 0,0 l/m 0,00 h 0,00 h 42 W/m 21,3 km/h (4 Bft)
22.01.2015 11:00 0,4 C 0,0 C 85 % 1017,0 hPa 0,0 l/m 0,00 h 0,00 h 61 W/m 19,3 km/h (3 Bft)
22.01.2015 12:00 0,8 C 0,5 C 83 % 1017,0 hPa 0,0 l/m 0,00 h 0,00 h 75 W/m 16,1 km/h (3 Bft)
22.01.2015 13:00 0,8 C 0,5 C 84 % 1017,3 hPa 0,0 l/m 0,00 h 0,00 h 58 W/m 15,6 km/h (3 Bft)
22.01.2015 14:00 0,8 C 0,1 C 84 % 1017,5 hPa 0,0 l/m 0,00 h 0,00 h 40 W/m 13,5 km/h (3 Bft)
22.01.2015 15:00 0,9 C 0,2 C 83 % 1017,7 hPa 0,0 l/m 0,00 h 0,00 h 26 W/m 12,3 km/h (3 Bft)
22.01.2015 16:00 0,8 C 0,0 C 84 % 1018,3 hPa 0,0 l/m 0,00 h 0,00 h 6 W/m 15,8 km/h (3 Bft)
22.01.2015 17:00 0,8 C 0,0 C 83 % 1019,1 hPa 0,0 l/m 0,00 h 0,00 h 4 W/m 10,1 km/h (2 Bft)
22.01.2015 18:00 0,9 C -0,1 C 85 % 1019,6 hPa 0,0 l/m 0,00 h 0,00 h 0 W/m 10,2 km/h (2 Bft)
22.01.2015 19:00 0,6 C -0,6 C 88 % 1020,0 hPa 0,0 l/m 0,00 h 0,00 h 0 W/m 15,8 km/h (3 Bft)
22.01.2015 20:00 0,5 C -0,6 C 90 % 1020,3 hPa 0,0 l/m 0,00 h 0,00 h 0 W/m 16,6 km/h (3 Bft)
22.01.2015 21:00 0,5 C -0,6 C 91 % 1020,9 hPa 0,0 l/m 0,00 h 0,00 h 0 W/m 13,4 km/h (3 Bft)
22.01.2015 22:00 0,5 C -0,6 C 91 % 1021,5 hPa 0,0 l/m 0,00 h 0,00 h 0 W/m 14,2 km/h (3 Bft)
22.01.2015 23:00 0,5 C -0,6 C 91 % 1021,9 hPa 0,0 l/m 0,00 h 0,00 h 0 W/m 13,1 km/h (3 Bft)
23.01.2015 00:00 0,5 C -0,5 C 89 % 1022,0 hPa 0,0 l/m 0,00 h 0,00 h 0 W/m 13,6 km/h (3 Bft)
23.01.2015 01:00 0,5 C -0,6 C 89 % 1022,2 hPa 0,0 l/m 0,00 h 0,00 h 0 W/m 14,2 km/h (3 Bft)
23.01.2015 02:00 0,2 C -0,8 C 89 % 1022,5 hPa 0,0 l/m 0,00 h 0,00 h 0 W/m 16,2 km/h (3 Bft)
23.01.2015 03:00 -0,6 C -2,0 C 90 % 1022,4 hPa 0,0 l/m 0,00 h 0,00 h 0 W/m 12,6 km/h (3 Bft)
23.01.2015 04:00 -1,3 C -2,5 C 92 % 1022,8 hPa 0,0 l/m 0,00 h 0,00 h 0 W/m 14,3 km/h (3 Bft)
23.01.2015 05:00 -1,8 C -3,0 C 93 % 1023,3 hPa 0,0 l/m 0,00 h 0,00 h 0 W/m 9,1 km/h (2 Bft)
23.01.2015 06:00 -1,8 C -2,6 C 94 % 1023,9 hPa 0,0 l/m 0,00 h 0,00 h 0 W/m 15,5 km/h (3 Bft)
23.01.2015 07:00 -1,6 C -2,2 C 94 % 1024,4 hPa 0,0 l/m 0,00 h 0,00 h 0 W/m 14,6 km/h (3 Bft)
23.01.2015 08:00 -1,5 C -2,2 C 94 % 1024,7 hPa 0,0 l/m 0,00 h 0,00 h 8 W/m 9,6 km/h (2 Bft)
23.01.2015 09:00 -1,2 C -1,7 C 94 % 1025,3 hPa 0,0 l/m 0,00 h 0,00 h 20 W/m 6,9 km/h (2 Bft)
23.01.2015 10:00 -1,0 C -1,5 C 94 % 1025,8 hPa 0,0 l/m 0,00 h 0,00 h 38 W/m 8,8 km/h (2 Bft)
23.01.2015 11:00 -0,7 C -0,9 C 93 % 1026,0 hPa 0,0 l/m 0,00 h 0,00 h 59 W/m 7,4 km/h (2 Bft)
23.01.2015 12:00 -0,3 C -0,5 C 92 % 1025,9 hPa 0,0 l/m 0,00 h 0,00 h 72 W/m 6,1 km/h (2 Bft)
23.01.2015 13:00 -0,2 C -0,6 C 90 % 1025,5 hPa 0,0 l/m 0,00 h 0,00 h 68 W/m 5,7 km/h (1 Bft)
23.01.2015 14:00 -0,1 C -0,6 C 90 % 1025,2 hPa 0,0 l/m 0,00 h 0,00 h 58 W/m 5,5 km/h (1 Bft)
23.01.2015 15:00 -0,1 C -0,7 C 90 % 1025,5 hPa 0,0 l/m 0,00 h 0,00 h 32 W/m 4,3 km/h (1 Bft)
23.01.2015 16:00 -0,3 C -1,2 C 89 % 1025,8 hPa 0,0 l/m 0,00 h 0,00 h 12 W/m 5,3 km/h (1 Bft)
23.01.2015 17:00 -0,7 C -1,7 C 89 % 1026,1 hPa 0,0 l/m 0,00 h 0,00 h 0 W/m 4,3 km/h (1 Bft)
23.01.2015 18:00 -0,8 C -1,7 C 90 % 1026,2 hPa 0,0 l/m 0,00 h 0,00 h 0 W/m 3,9 km/h (1 Bft)
23.01.2015 19:00 -0,7 C -1,6 C 90 % 1026,0 hPa 0,0 l/m 0,00 h 0,00 h 0 W/m 9,1 km/h (2 Bft)
23.01.2015 20:00 -0,8 C -1,7 C 91 % 1025,8 hPa 0,0 l/m 0,00 h 0,00 h 0 W/m 11,6 km/h (2 Bft)
23.01.2015 21:00 -0,9 C -1,7 C 92 % 1025,3 hPa 0,0 l/m 0,00 h 0,00 h 0 W/m 12,3 km/h (3 Bft)
23.01.2015 22:00 -0,8 C -1,6 C 93 % 1025,0 hPa 0,0 l/m 0,00 h 0,00 h 0 W/m 11,6 km/h (2 Bft)
23.01.2015 23:00 -0,5 C -1,1 C 93 % 1024,5 hPa 0,0 l/m 0,00 h 0,00 h 0 W/m 13,1 km/h (3 Bft)
24.01.2015 00:00 -0,3 C -1,1 C 92 % 1023,8 hPa 0,0 l/m 0,00 h 0,00 h 0 W/m 15,7 km/h (3 Bft)
24.01.2015 01:00 -0,2 C -1,1 C 91 % 1022,8 hPa 0,0 l/m 0,00 h 0,00 h 0 W/m 15,8 km/h (3 Bft)
24.01.2015 02:00 -0,4 C -1,2 C 91 % 1022,1 hPa 0,0 l/m 0,00 h 0,00 h 0 W/m 16,4 km/h (3 Bft)
24.01.2015 03:00 -0,5 C -1,2 C 91 % 1021,2 hPa 0,0 l/m 0,00 h 0,00 h 0 W/m 16,0 km/h (3 Bft)
24.01.2015 04:00 -0,8 C -2,2 C 91 % 1020,1 hPa 0,0 l/m 0,00 h 0,00 h 0 W/m 16,6 km/h (3 Bft)
24.01.2015 05:00 -1,2 C -2,2 C 91 % 1018,9 hPa 0,0 l/m 0,00 h 0,00 h 0 W/m 17,4 km/h (3 Bft)
24.01.2015 06:00 -1,2 C -2,0 C 91 % 1018,4 hPa 0,0 l/m 0,00 h 0,00 h 0 W/m 16,7 km/h (3 Bft)
24.01.2015 07:00 -0,8 C -1,4 C 91 % 1017,9 hPa 0,0 l/m 0,00 h 0,13 h 0 W/m 15,4 km/h (3 Bft)
24.01.2015 08:00 -0,6 C -1,7 C 92 % 1017,8 hPa 0,0 l/m 0,00 h 1,00 h 6 W/m 13,3 km/h (3 Bft)
24.01.2015 09:00 -0,6 C -1,6 C 94 % 1017,8 hPa 0,0 l/m 0,00 h 1,00 h 8 W/m 9,7 km/h (2 Bft)
24.01.2015 10:00 -0,1 C -1,1 C 95 % 1018,0 hPa 0,0 l/m 0,00 h 1,00 h 12 W/m 7,0 km/h (2 Bft)
24.01.2015 11:00 0,3 C -1,1 C 95 % 1018,1 hPa 0,0 l/m 0,00 h 1,00 h 20 W/m 10,6 km/h (2 Bft)
24.01.2015 12:00 0,5 C -0,9 C 96 % 1018,0 hPa 0,0 l/m 0,00 h 0,73 h 54 W/m 11,7 km/h (2 Bft)
24.01.2015 13:00 1,3 C -0,6 C 96 % 1018,4 hPa 0,0 l/m 0,37 h 0,00 h 157 W/m 12,4 km/h (3 Bft)
24.01.2015 14:00 2,6 C 0,9 C 97 % 1019,0 hPa 0,0 l/m 0,87 h 0,00 h 179 W/m 13,1 km/h (3 Bft)
24.01.2015 15:00 3,2 C 1,0 C 96 % 1019,9 hPa 1,6 l/m 0,87 h 0,00 h 135 W/m 14,9 km/h (3 Bft)
24.01.2015 16:00 2,9 C 0,5 C 95 % 1021,1 hPa 0,8 l/m 0,43 h 0,00 h 32 W/m 14,0 km/h (3 Bft)
24.01.2015 17:00 2,3 C -0,2 C 94 % 1022,2 hPa 0,2 l/m 0,00 h 0,00 h 6 W/m 11,9 km/h (2 Bft)
24.01.2015 18:00 1,8 C -0,5 C 95 % 1023,4 hPa 0,2 l/m 0,00 h 0,00 h 0 W/m 11,5 km/h (2 Bft)
24.01.2015 19:00 1,6 C -0,9 C 95 % 1024,3 hPa 0,0 l/m 0,00 h 0,00 h 0 W/m 9,1 km/h (2 Bft)
24.01.2015 20:00 1,0 C -1,1 C 95 % 1025,1 hPa 0,2 l/m 0,00 h 0,00 h 0 W/m 8,0 km/h (2 Bft)
24.01.2015 21:00 0,7 C -1,3 C 95 % 1025,6 hPa 0,0 l/m 0,00 h 0,00 h 0 W/m 8,1 km/h (2 Bft)
24.01.2015 22:00 -0,1 C -1,9 C 95 % 1026,1 hPa 0,0 l/m 0,00 h 0,00 h 0 W/m 6,8 km/h (2 Bft)
24.01.2015 23:00 -0,7 C -2,2 C 95 % 1026,5 hPa 0,0 l/m 0,00 h 0,00 h 0 W/m 8,7 km/h (2 Bft)
25.01.2015 00:00 -0,7 C -2,2 C 96 % 1026,9 hPa 0,0 l/m 0,00 h 0,00 h 0 W/m 8,0 km/h (2 Bft)
25.01.2015 01:00 -0,9 C -2,3 C 96 % 1027,1 hPa 0,0 l/m 0,00 h 0,00 h 0 W/m 8,7 km/h (2 Bft)
25.01.2015 02:00 -1,1 C -2,3 C 96 % 1027,3 hPa 0,0 l/m 0,00 h 0,00 h 0 W/m 10,0 km/h (2 Bft)
25.01.2015 03:00 -1,0 C -2,2 C 96 % 1027,4 hPa 0,0 l/m 0,00 h 0,00 h 0 W/m 9,7 km/h (2 Bft)
25.01.2015 04:00 -1,2 C -2,4 C 97 % 1027,7 hPa 0,0 l/m 0,00 h 0,00 h 0 W/m 10,1 km/h (2 Bft)
25.01.2015 05:00 -1,2 C -2,0 C 97 % 1028,1 hPa 0,0 l/m 0,00 h 0,00 h 0 W/m 9,7 km/h (2 Bft)
25.01.2015 06:00 -0,6 C -1,6 C 97 % 1028,4 hPa 0,0 l/m 0,00 h 0,00 h 0 W/m 8,4 km/h (2 Bft)
25.01.2015 07:00 -0,2 C -1,3 C 97 % 1028,6 hPa 0,0 l/m 0,00 h 0,00 h 0 W/m 7,7 km/h (2 Bft)
25.01.2015 08:00 -0,1 C -1,2 C 97 % 1029,3 hPa 0,0 l/m 0,40 h 0,00 h 24 W/m 8,6 km/h (2 Bft)
25.01.2015 09:00 0,4 C -0,6 C 98 % 1029,5 hPa 0,0 l/m 0,27 h 0,00 h 65 W/m 8,8 km/h (2 Bft)
25.01.2015 10:00 1,2 C 0,3 C 98 % 1029,6 hPa 0,0 l/m 0,00 h 0,00 h 105 W/m 9,0 km/h (2 Bft)
25.01.2015 11:00 2,2 C 1,4 C 98 % 1029,5 hPa 0,2 l/m 0,67 h 0,00 h 174 W/m 10,7 km/h (2 Bft)
25.01.2015 12:00 2,8 C 2,0 C 98 % 1029,0 hPa 0,4 l/m 0,43 h 0,00 h 167 W/m 13,6 km/h (3 Bft)
25.01.2015 13:00 3,1 C 2,1 C 98 % 1028,4 hPa 0,8 l/m 0,03 h 0,00 h 142 W/m 13,5 km/h (3 Bft)
25.01.2015 14:00 3,0 C 1,4 C 97 % 1028,1 hPa 0,8 l/m 0,00 h 0,53 h 61 W/m 13,5 km/h (3 Bft)
25.01.2015 15:00 2,7 C 1,1 C 96 % 1028,2 hPa 0,4 l/m 0,00 h 0,57 h 36 W/m 15,6 km/h (3 Bft)
25.01.2015 16:00 2,4 C 1,1 C 96 % 1028,1 hPa 0,6 l/m 0,00 h 0,70 h 13 W/m 11,3 km/h (2 Bft)
25.01.2015 17:00 2,4 C 1,1 C 96 % 1028,2 hPa 0,2 l/m 0,00 h 0,10 h 5 W/m 11,1 km/h (2 Bft)
25.01.2015 18:00 2,3 C 0,9 C 97 % 1028,4 hPa 0,2 l/m 0,00 h 0,00 h 0 W/m 11,9 km/h (2 Bft)
25.01.2015 19:00 2,3 C 1,0 C 97 % 1028,2 hPa 0,2 l/m 0,00 h 0,00 h 0 W/m 10,6 km/h (2 Bft)
25.01.2015 20:00 2,2 C 1,0 C 97 % 1028,0 hPa 0,4 l/m 0,00 h 0,67 h 0 W/m 10,3 km/h (2 Bft)
25.01.2015 21:00 2,2 C 1,1 C 97 % 1027,6 hPa 0,4 l/m 0,00 h 0,20 h 0 W/m 11,8 km/h (2 Bft)
25.01.2015 22:00 2,3 C 1,1 C 97 % 1027,1 hPa 0,4 l/m 0,00 h 0,53 h 0 W/m 11,3 km/h (2 Bft)
25.01.2015 23:00 2,2 C 1,1 C 97 % 1026,6 hPa 0,2 l/m 0,00 h 0,20 h 0 W/m 10,5 km/h (2 Bft)
Min-Datum _ 21.01.15 21.01.15 21.01.15 19.01.15 - - - - 19.01.15
_ Min-Zeit 08:12 05:58 13:34 14:44 - - - - 18:10
Minimum _ -2,0 C -3,3 C 68 % 1010,7 hPa - - - - 0,0 km/h (0 Bft)
Max-Datum _ 21.01.15 20.01.15 25.01.15 25.01.15 24.01.15 19.01.15 24.01.15 21.01.15 22.01.15
_ Max-Zeit 13:28 14:16 08:50 09:56 15:08 08:44 07:48 12:20 09:24
Maximum _ 4,2 C 2,8 C 98 % 1029,7 hPa 1,6 l/m 0,03 h 0,03 h 351 W/m 29,3 km/h
O-NO (5 Bft)
Durchschnitt _ 0,4 C -0,6 C 90 % 1018,1 hPa #8,2 l/m #9:40 h #8:22 h 66 W/m 9,6 km/h (2 Bft)
© 2015 W. Hausmann